User: anonymous   Login
Location: Unspecified
(51.0950°N, 12.9690°E)
Time: 21:42:00
(UTC+00:00)
Language:

Hubble Space Telescope - Orbit

View from above orbital plane
View from above orbital plane
View from above satellite
View from above satellite

Ground track
Ground track

The orbit data is extracted from the following two-line orbital elements,

1 20580U 90037B   24052.07226465  .00006285  00000-0  30848-3 0  9996
2 20580  28.4699  48.7327 0002703 196.5822 163.4681 15.16029186659492
Epoch (UTC): 21 February 2024 01:44:03
Eccentricity: 0.0002703
inclination: 28.4699°
perigee height: 516 km
apogee height: 520 km
right ascension of ascending node: 48.7327°
argument of perigee: 196.5822°
revolutions per day: 15.16029186
mean anomaly at epoch: 163.4681°
orbit number at epoch: 65949

The dashed part of the orbit path shows where the satellite is in the earth's shadow,  

DLR